www.pogodaiklimat.ru

Погода и климат >> Архив погоды >> Малайзия >> Аэропорт Сеная


ПОГОДА в Аэропорту Сеная

  • Прогноз погоды в Аэропорту Сеная
  • Монитор погоды в Аэропорту Сеная

АРХИВ ПОГОДЫ в Аэропорту Сеная

Время (UTC), дата Ветер
(напр.,м/с)
 
Видим.   Явления Облачность Т
(С)
Тd
(С)
f
(%)
Тe
(С)
Тes
(С)
Комфортность P
(гПа)
Po
(гПа)
Тmin
(С)
Tmax
(С)
R
(мм)
R24
(мм)
S
(см)
18 15.03 штиль 0 14 км 6/1 720 м
[Sc Ac lent Ci sp]
+23.7 +22.5 93 +31 +31 очень
душно
1011.9 1007.5
00 16.03 штиль 0 9000 м мгла 9/4 360 м
[Cu Sc Ac lent Ci sp]
+23.6 +22.5 94 +31 +32 очень
душно
1012.8 1008.4 +22.6
06 16.03 СВ 5 18 км мгла 9/4 540 м
[Cu hum Ac trans Ci sp]
+32.7 +26.7 71 +50 +54 опасность
перегрева
1011.5 1007.2
12 16.03 СВ 3 12 км мгла 9/1 660 м
[Sc Ac trans Ci sp]
+28.2 +25.0 83 +41 +41 опасность
перегрева
1011.7 1007.4 +33.5 0.0
18 16.03 СЗ 1 14 км 8/1 700 м
[Sc Ac trans Ci sp]
+24.7 +23.5 93 +33 +33 очень
душно
1012.6 1008.2
00 17.03 СЗ 1 10 км дымка 8/1 720 м
[Sc Ac trans Ci sp]
+24.0 +23.1 95 +32 +33 очень
душно
1012.1 1007.7 +23.2 0.0
06 17.03 С 3 18 км мгла 9/3 600 м
[Cu hum Ac trans Ci sp]
+33.8 +23.4 55 +45 +52 опасность
перегрева
1011.0 1006.7
12 17.03 СВ 4 14 км 8/1 660 м
[Sc Ac trans Ci fib]
+27.4 +22.8 76 +36 +36 очень
душно
1011.3 1006.9 +34.0
18 17.03 С 1 14 км 6/1 720 м
[Sc Ac trans Ci sp]
+23.6 +22.0 91 +30 +30 очень
душно
1012.5 1008.1
00 18.03 С 1 12 км мгла 9/1 660 м
[Sc Ac trans Ci sp]
+23.3 +21.9 92 +32 +33 очень
душно
1011.6 1007.2 +22.2
06 18.03 С 4 22 км 6/1 600 м
[Cu hum Ac trans Ci fib]
+33.9 +22.9 53 +44 +53 опасность
перегрева
1009.7 1005.4
12 18.03 СВ 4 14 км 6/1 750 м
[Sc Ac lent Ci sp]
+28.0 +19.6 60 +34 +34 очень
душно
1009.7 1005.3 +34.9
18 18.03 штиль 0 14 км 9/1 700 м
[Sc Ac und Ci fib]
+23.7 +21.6 88 +30 +30 очень
душно
1011.6 1007.2
00 19.03 штиль 0 16 км мгла 9/1 720 м
[Sc Ac trans Ci sp]
+23.3 +21.8 91 +32 +32 очень
душно
1011.0 1006.6 +22.3
06 19.03 СВ 3 18 км мгла 9/4 540 м
[Cu med, cong Ac lent Ci sp]
+33.0 +22.9 55 +43 +49 опасность
перегрева
1009.3 1005.0
12 19.03 В 3 14 км {ливн. осадки} 9/1 660 м
[Sc Ac trans Ci sp]
+28.0 +24.1 79 +39 +39 очень
душно
1008.6 1004.3 +34.0 0.0
18 19.03 СЗ 1 8000 м мгла 9/1 660 м
[Sc Ac lent Ci sp]
+25.6 +24.2 92 +35 +35 очень
душно
1010.7 1006.4
00 20.03 С 1 6000 м мгла 9/3 300 м
[St Ac lent Ci sp]
+24.9 +23.7 93 +34 +34 очень
душно
1010.3 1005.9 +23.3 0.0
06 20.03 С 3 26 км 9/4 540 м
[Cu hum Ac trans Ci sp]
+33.6 +24.4 59 +46 +53 опасность
перегрева
1009.5 1005.2
12 20.03 СВ 2 14 км 9/3 660 м
[Sc Ac trans Ci sp]
+28.8 +23.5 73 +39 +39 очень
душно
1008.4 1004.1 +34.9
18 20.03 штиль 0 14 км 9/1 700 м
[Sc Ac trans Ci sp]
+25.5 +23.8 90 +35 +35 очень
душно
1010.7 1006.3
00 21.03 СВ 2 14 км мгла 9/1 700 м
[Sc Ac trans Ci sp]
+25.4 +23.0 87 +34 +35 очень
душно
1010.9 1006.5 +24.8
06 21.03 С 3 26 км 9/3 600 м
[Cu med, cong Ac trans Ci sp]
+34.2 +24.7 58 +47 +54 опасность
перегрева
1009.2 1004.9
12 21.03 штиль 0 6000 м гроза, ливневой дождь 9/4 210 м
[Cb cap Ac lent Cs]
+24.6 +24.3 98 +34 +34 очень
душно
1010.3 1006.0 +35.3 44
18 21.03 СЗ 2 10 км дымка {гроза, дождь} 9/1 700 м
[Sc Ac lent Ci sp]
+24.4 +23.9 97 +33 +33 очень
душно
1011.8 1007.4 0.0
00 22.03 С 1 6000 м дымка 9/3 300 м
[St Ac trans Ci sp]
+24.1 +23.3 95 +32 +33 очень
душно
1011.1 1006.7 +23.5 44
06 22.03 СВ 2 24 км 9/4 540 м
[Cu hum Ac trans Ci fib]
+33.3 +24.8 61 +46 +54 опасность
перегрева
1009.1 1004.8
12 22.03 С 1 6000 м слаб. дождь 9/4 540 м
[Sc Ac trans Ci sp]
+29.0 +26.2 85 +44 +44 опасность
перегрева
1008.7 1004.4 +35.3 0.8

 

Местоположение метеостанции Аэропорт Сеная (Малайзия): широта 1.63 долгота 103.67 высота над уровнем моря 37 м.

В архиве по умолчанию представлена погода в Аэропорту Сеная за последнюю неделю. Архивные данные за месяц целиком и за предыдущие месяцы, начиная с января 2011 года, Вы можете получить, выбрав интересующий диапазон дат из раскрывающегося списка и нажав кнопку "Ввод!".


*Определитесь, кто Вы:
робот инопланетянин человек

Внимание! Время в таблицах - всемирное. Для получения местного времени необходимо прибавить поправку, которая равна 7 ч.

Смотрите также архив погоды в соседних городах и на ближайших метеорологических станциях:

Погода в Сингапуре (Сингапур) (45 км)
Погода в Аэропорту Ханга Надима (Индонезия) (75 км)
Погода в Танджунгпинанге (Индонезия) (124 км)
Погода в Малакке (Малайзия) (173 км)
Погода в Куантане (Малайзия) (245 км)
Погода в Куала-Лумпур аэропорту (Малайзия) (250 км)
Погода в Аэропорту Дабо (Индонезия) (256 км)
Погода в Аэропорту Япура (Индонезия) (265 км)
Погода в Пеканбару (Индонезия) (279 км)
Погода в Куала-Лумпуре (Малайзия) (288 км)

Пояснения к столбцам:

Ветер - указаны скорость ветра в м/с - средняя за 10 мин, порывы в срок и между сроками (в фигурных скобках) и направление, откуда дует ветер: С - северный, СВ - северо-восточный, В - восточный, ЮВ - юго-восточный, Ю - южный, ЮЗ - юго-западный, З - западный, СЗ - северо-западный.
Видимость - горизонтальная дальность видимости в метрах или километрах. При видимости от 1 до 10 км при отсутствии осадков обычно наблюдается дымка, при ухудшении видимости до 1 км и менее - туман. В сухую погоду видимость может ухудшаться дымом, пылью или мглою.
Явления - указаны атмосферные явления, наблюдавшиеся в срок или в последний час перед сроком; фигурными скобками обозначены явления, наблюдавшиеся между сроками (за 1-3 часа до срока); квадратными скобками обозначены град или гололедные отложения с указанием их диаметра в мм.
Облачность - указаны через наклонную черту общая и нижняя облачность в баллах и высота нижней границы облаков в метрах; квадратными скобками обозначены формы облаков: Ci - перистые, Cs - перисто-слоистые, Cc - перисто-кучевые, Ac - высококучевые, As - высокослоистые, Sc - слоисто-кучевые, Ns - слоисто-дождевые, Cu - кучевые, Cb - кучево-дождевые. Подробнее классификацию облаков см. в Атласе облаков (PDF).
T - Температура воздуха - температура, измеренная на высоте 2 м над землей.
Td - Температура точки росы - температура, при понижении до которой содержащийся в воздухе водяной пар достигнет насыщения.
f - Относительная влажность воздуха - влажноcть воздуха, измеренная на высоте 2 м над землей.
Te - Эффективная температура - температура, которую ощущает одетый по сезону человек в тени. Характеристика душности погоды. При расчете учитывается влияние влажности воздуха и скорости ветра на теплоощущения человека.
Tes - Эффективная температура на солнце - температура, которую ощущает человек, с поправкой на солнечный нагрев. Характеристика знойности погоды. Зависит от высоты солнца над горизонтом, облачности и скорости ветра. Ночью, в пасмурную погоду, а также при ветре 12 м/с и более поправка равна нулю.
P - Атмосферное давление - приведенное к уровню моря атмосферное давление.
Po - Атмосферное давление - измеренное на уровне метеостанции атмосферное давление.
Tmin - Минимальная температура - минимум температуры воздуха на высоте 2 м над землей.
Tmax - Максимальная температура - максимум температуры воздуха на высоте 2 м над землей.
R - Количество осадков - Количество выпавших осадков за период времени, мм. При наведении курсора мыши на число - период времени, за который выпало указанное количество осадков.
R24 - Количество осадков - Количество выпавших осадков за 24 часа, мм.
S - Снежный покров - Высота снежного покрова, см. При наведении курсора мыши на число - состояние снежного покрова и степень покрытия местности в баллах.